Location: Pradons
(44.4746°N, 4.3578°E)
Time: 01:23:33
(UTC+00:00)

Cosmos 1697 Rocket - Pass Details

Date: 09 April 2020
Orbit: 831 x 845 km, 71.0° (Epoch: 05 June)

Event Time Altitude Azimuth Distance (km) Brightness Sun altitude
Rises 21:06:08 0° 336° (NNW) 3,411 6.9 -26.6°
Reaches altitude 10° 21:08:36 10° 339° (NNW) 2,473 6.0 -26.9°
Enters shadow 21:14:07 66° 52° (NE) 919 2.7 -27.6°
